This is the latest recevied weather packets stored in our database for station/object AD7ZD. If no packets are shown the sender has not sent any weather packets the latest 10 day(s).
| Time | Temp. | Humidity | Pressure | Rain* | Wind** | Luminosity | Snow |
|---|---|---|---|---|---|---|---|
| 1778106457 | 24.44° C | 27% | 1016.9 hPa | 0 mm | - | 606 W/m² | - |
| 1778106153 | 23.89° C | 26% | 1017 hPa | 0 mm | - | 602 W/m² | - |
| 1778105851 | 23.89° C | 26% | 1017 hPa | 0 mm | - | 612 W/m² | - |
| 1778105549 | 23.89° C | 26% | 1017.2 hPa | 0 mm | - | 648 W/m² | - |
| 1778105246 | 23.89° C | 27% | 1017.2 hPa | 0 mm | - | 640 W/m² | - |
| 1778104940 | 23.33° C | 27% | 1017.1 hPa | 0 mm | - | 635 W/m² | - |
| 1778104637 | 22.78° C | 28% | 1017.4 hPa | 0 mm | - | 658 W/m² | - |
| 1778104333 | 22.78° C | 27% | 1017.2 hPa | 0 mm | - | 661 W/m² | - |
| 1778104030 | 23.89° C | 27% | 1017.4 hPa | 0 mm | - | 686 W/m² | - |
| 1778103727 | 23.33° C | 28% | 1017.5 hPa | 0 mm | - | 684 W/m² | - |
| 1778103425 | 22.78° C | 28% | 1017.6 hPa | 0 mm | - | 689 W/m² | - |
| 1778103123 | 23.33° C | 29% | 1017.8 hPa | 0 mm | - | 739 W/m² | - |
| 1778102820 | 22.78° C | 27% | 1017.6 hPa | 0 mm | - | 703 W/m² | - |
| 1778102515 | 22.78° C | 28% | 1017.7 hPa | 0 mm | - | 703 W/m² | - |
| 1778102210 | 22.78° C | 27% | 1017.7 hPa | 0 mm | - | 636 W/m² | - |
| 1778101907 | 23.33° C | 28% | 1017.7 hPa | 0 mm | - | 724 W/m² | - |
| 1778101604 | 22.78° C | 28% | 1017.7 hPa | 0 mm | - | 711 W/m² | - |
| 1778101301 | 22.78° C | 27% | 1017.8 hPa | 0 mm | - | 776 W/m² | - |
| 1778100998 | 22.22° C | 29% | 1017.8 hPa | 0 mm | - | 767 W/m² | - |
| 1778100692 | 23.89° C | 27% | 1017.8 hPa | 0 mm | - | 735 W/m² | - |
| 1778100391 | 23.33° C | 27% | 1017.8 hPa | 0 mm | - | 744 W/m² | - |
| 1778100087 | 22.78° C | 28% | 1017.8 hPa | 0 mm | - | 772 W/m² | - |
| 1778099786 | 22.22° C | 29% | 1018.2 hPa | 0 mm | - | 790 W/m² | - |
| 1778099482 | 22.78° C | 29% | 1017.9 hPa | 0 mm | - | 766 W/m² | - |
| 1778099180 | 22.78° C | 28% | 1017.8 hPa | 0 mm | - | 750 W/m² | - |
* Rain latest hour (hover to see other rain measurements)
** Current wind speed in m/s (hover to see current wind gust speed)